Jackson Lake Weather Center

Moon Phase Calendar



Jackson Lake Water Level
Online Cameras

 


      

Current Conditions in Jackson
9/25/2022 4:07:33 AM

58°F
Feels Like 58
Clear
Humidity
95%
Pressure
29.94"
Wind
3.5 mph (WSW)
Dew Point
57°F
UV Index
0/10 (Low)
Visibility
6 mi

Hourly Forecast

Date & Time Sun, Sep 25
4:00 AM
Sun, Sep 25
5:00 AM
Sun, Sep 25
6:00 AM
Sun, Sep 25
7:00 AM
Sun, Sep 25
8:00 AM
Sun, Sep 25
9:00 AM
Sun, Sep 25
10:00 AM
Sun, Sep 25
11:00 AM
Sun, Sep 25
12:00 PM
Sun, Sep 25
1:00 PM
Sun, Sep 25
2:00 PM
Sun, Sep 25
3:00 PM
Sun, Sep 25
4:00 PM
Sun, Sep 25
5:00 PM
Sun, Sep 25
6:00 PM
Sun, Sep 25
7:00 PM
Sun, Sep 25
8:00 PM
Sun, Sep 25
9:00 PM
Sun, Sep 25
10:00 PM
Sun, Sep 25
11:00 PM
Mon, Sep 26
12:00 AM
Mon, Sep 26
1:00 AM
Mon, Sep 26
2:00 AM
Mon, Sep 26
3:00 AM
Mon, Sep 26
4:00 AM
Mon, Sep 26
5:00 AM
Mon, Sep 26
6:00 AM
Mon, Sep 26
7:00 AM
Mon, Sep 26
8:00 AM
Mon, Sep 26
9:00 AM
Mon, Sep 26
10:00 AM
Mon, Sep 26
11:00 AM
Mon, Sep 26
12:00 PM
Mon, Sep 26
1:00 PM
Mon, Sep 26
2:00 PM
Mon, Sep 26
3:00 PM
Mon, Sep 26
4:00 PM
Mon, Sep 26
5:00 PM
Mon, Sep 26
6:00 PM
Mon, Sep 26
7:00 PM
Mon, Sep 26
8:00 PM
Mon, Sep 26
9:00 PM
Mon, Sep 26
10:00 PM
Mon, Sep 26
11:00 PM
Tue, Sep 27
12:00 AM
Tue, Sep 27
1:00 AM
Tue, Sep 27
2:00 AM
Tue, Sep 27
3:00 AM
Condition
Clear

Clear

Clouds

Clouds

Clouds

Clouds

Clouds

Clouds

Clouds

Clouds

Clouds

Clouds

Clouds

Clouds

Clouds

Clouds

Clouds

Rain

Rain

Rain

Rain

Rain

Rain

Clear

Clouds

Clouds

Clear

Clouds

Clouds

Clouds

Clouds

Clouds

Clouds

Clouds

Clouds

Clear

Clear

Clear

Clear

Clouds

Clouds

Clouds

Clouds

Clouds

Clouds

Clouds

Clouds

Clear
Temperature 58°F59°F59°F59°F60°F66°F71°F76°F80°F83°F84°F80°F82°F84°F83°F77°F73°F69°F68°F67°F66°F66°F66°F65°F65°F65°F65°F64°F65°F68°F72°F77°F81°F84°F86°F86°F85°F84°F81°F73°F68°F66°F64°F63°F62°F61°F59°F58°F
Feels Like 58°F58°F58°F58°F59°F65°F71°F75°F80°F82°F83°F81°F82°F84°F83°F77°F73°F70°F68°F67°F67°F67°F67°F66°F66°F66°F66°F65°F65°F69°F72°F77°F81°F82°F83°F83°F83°F82°F80°F72°F67°F64°F63°F62°F60°F59°F58°F56°F
Cloudiness 6%9%15%20%32%77%83%88%86%81%81%99%90%70%55%47%41%1%35%39%34%29%24%0%15%12%10%14%28%47%48%34%26%22%19%0%1%5%8%11%17%36%36%32%33%28%24%0%
Visibility 6 mi6 mi6 mi6 mi6 mi6 mi6 mi6 mi6 mi6 mi6 mi6 mi6 mi6 mi6 mi6 mi6 mi6 mi6 mi6 mi6 mi6 mi6 mi6 mi6 mi6 mi6 mi6 mi6 mi6 mi6 mi6 mi6 mi6 mi6 mi6 mi6 mi6 mi6 mi6 mi6 mi6 mi6 mi6 mi6 mi6 mi6 mi6 mi
Precipitation 0%0%0%0%0%0%2%2%7%9%10%0%0%0%0%5%21%44%50%55%62%76%72%9%2%0%0%0%0%0%0%0%0%0%0%0%0%0%0%0%0%0%0%0%0%0%0%0%
Humidity 95%88%83%77%71%58%49%43%39%37%38%48%44%42%47%61%65%77%85%89%91%94%95%96%96%96%97%97%95%87%76%56%42%34%26%24%25%27%32%44%45%46%48%50%54%57%57%56%
Dew Point 57°F55°F54°F52°F51°F50°F51°F52°F53°F54°F55°F59°F58°F58°F60°F62°F60°F62°F63°F63°F64°F64°F64°F64°F64°F64°F64°F63°F63°F64°F63°F60°F56°F52°F48°F45°F45°F46°F49°F50°F46°F44°F44°F44°F45°F45°F44°F42°F
Pressure 29.94"29.94"29.94"29.97"29.97"29.97"29.97"29.97"29.97"29.94"29.91"29.88"29.88"29.85"29.85"29.85"29.85"29.88"29.88"29.88"29.88"29.88"29.88"29.88"29.88"29.88"29.88"29.91"29.91"29.94"29.94"29.94"29.94"29.91"29.88"29.88"29.85"29.85"29.85"29.88"29.91"29.94"29.97"29.97"30"30"30"30"
Wind Speed 3.5 mph3.8 mph4.1 mph3.7 mph3.7 mph3.7 mph4.3 mph5.2 mph5.8 mph5.8 mph5.2 mph4 mph5.3 mph7.2 mph6.2 mph4.6 mph4.9 mph5 mph3.8 mph2.7 mph2.3 mph3.5 mph2.6 mph2.6 mph2.7 mph3.1 mph3.5 mph3.8 mph3.9 mph3.9 mph4.6 mph4.9 mph5.3 mph6.2 mph7.8 mph10.3 mph11 mph9.5 mph7.8 mph6 mph5.7 mph5.6 mph5.9 mph6 mph5.8 mph5.8 mph5.5 mph5.4 mph
Wind
Direction
238°
WSW
230°
SW
228°
SW
244°
WSW
233°
SW
235°
SW
232°
SW
247°
WSW
257°
WSW
273°
W
273°
W
269°
W
259°
W
247°
WSW
246°
WSW
225°
SW
231°
SW
267°
W
279°
W
307°
NW
292°
WNW
281°
W
263°
W
253°
WSW
269°
W
299°
WNW
314°
NW
330°
NNW
339°
NNW
343°
NNW
339°
NNW
332°
NNW
322°
NW
311°
NW
300°
WNW
296°
WNW
296°
WNW
294°
WNW
299°
WNW
308°
NW
325°
NW
336°
NNW
332°
NNW
333°
NNW
341°
NNW
348°
NNW
348°
NNW
345°
NNW

Daily Forecast

Date High Low Precip. Humidity
Today
Sep 25

Rain
84 °F
58 °F
55%
37%
Monday
Sep 26

Rain
86 °F
63 °F
76%
34%
Tuesday
Sep 27

Clear
79 °F
55 °F
0%
18%
Wednesday
Sep 28

Clouds
76 °F
57 °F
0%
26%
Thursday
Sep 29

Rain
64 °F
57 °F
76%
48%
Friday
Sep 30

Rain
58 °F
53 °F
100%
95%
Saturday
Oct 1

Rain
63 °F
58 °F
100%
95%
Sunday
Oct 2

Clouds
74 °F
61 °F
13%
68%
Monday
Oct 3

Clear
85 °F
61 °F
0%
48%
Tuesday
Oct 4

Clear
85 °F
64 °F
0%
38%
Wednesday
Oct 5

Clear
75 °F
52 °F
0%
33%
Thursday
Oct 6

Clear
77 °F
52 °F
0%
40%
Friday
Oct 7

Clear
79 °F
53 °F
0%
38%
Saturday
Oct 8

Clear
82 °F
57 °F
0%
35%
Sunday
Oct 9

Clear
83 °F
61 °F
0%
38%
Monday
Oct 10

Clear
79 °F
57 °F
0%
41%

Temperature 8-14 Day Outlook



Precipitation 8-14 Day Outlook




Quick Links
Jackson Lake News
Jackson Lake Photos
Jackson Lake Videos




About Us
Contact Us
Site Map
Search Site
Advertise With Us
   
Jackson-GA.LakesOnline.com
THE JACKSON LAKE WEBSITE

Copyright 2022, Lakes Online
Privacy    |    Legal